TAP37CN LEBL-LPPT

Flight info

Callsign TAP37CN
Flight time 1h 34m
Altitude 39000
Route SENIA DCT DORMI DCT CRETA DCT NEXAS DCT DISVU DCT ADUXO N975 CJN/N0455F330 N975 PALIO DCT AKOKI DCT GOTOR DCT TLD DCT NATPA DCT MELON DCT CCS DCT ELVAR DCT UPULO
Aircraft A320/M-SDE3FGHIRWY/LB1

Departure

Time 2026-05-04 19:02
Airport Josep Tarradellas Barcelona-El Prat Airport (LEBL)

Arrival

Time 2026-05-04 20:37
Airport Lisbon Humberto Delgado Airport (LPPT)
Time Latitude Longitude Altitude Speed Heading
2026-05-04 18:18 41.29053 2.08110 19 ft 0 kts 335°
2026-05-04 18:19 41.29031 2.08049 19 ft 0 kts 335°
2026-05-04 18:52 41.29024 2.08052 19 ft 4 kts 335°
2026-05-04 18:52 41.29000 2.08067 20 ft 4 kts 335°
2026-05-04 18:52 41.28980 2.08079 20 ft 4 kts 341°
2026-05-04 18:53 41.28957 2.08081 20 ft 4 kts 43°
2026-05-04 18:53 41.28944 2.08054 21 ft 3 kts 65°
2026-05-04 18:53 41.28943 2.08049 19 ft 0 kts 65°
2026-05-04 18:57 41.28944 2.08054 21 ft 3 kts 65°
2026-05-04 18:57 41.28954 2.08083 20 ft 6 kts 66°
2026-05-04 18:57 41.28906 2.08145 19 ft 12 kts 157°
2026-05-04 18:57 41.28829 2.08190 19 ft 14 kts 156°
2026-05-04 18:58 41.28730 2.08241 17 ft 16 kts 159°
2026-05-04 18:58 41.28737 2.08364 16 ft 17 kts 65°
2026-05-04 18:58 41.28780 2.08490 18 ft 13 kts 66°
2026-05-04 18:58 41.28818 2.08600 17 ft 13 kts 65°
2026-05-04 18:59 41.28871 2.08752 17 ft 22 kts 66°
2026-05-04 18:59 41.28932 2.08937 19 ft 22 kts 66°
2026-05-04 18:59 41.28995 2.09120 18 ft 22 kts 66°
2026-05-04 18:59 41.29058 2.09305 17 ft 22 kts 65°
2026-05-04 19:00 41.29121 2.09489 17 ft 22 kts 65°
2026-05-04 19:00 41.29187 2.09679 17 ft 23 kts 65°
2026-05-04 19:00 41.29255 2.09875 18 ft 24 kts 64°
2026-05-04 19:00 41.29318 2.10026 17 ft 17 kts 66°
2026-05-04 19:01 41.29363 2.10162 16 ft 15 kts 66°
2026-05-04 19:01 41.29329 2.10269 13 ft 15 kts 153°
2026-05-04 19:01 41.29237 2.10321 14 ft 9 kts 169°
2026-05-04 19:01 41.29203 2.10271 16 ft 9 kts 246°
2026-05-04 19:02 41.29118 2.10023 18 ft 64 kts 245°
2026-05-04 19:02 41.28839 2.09210 19 ft 127 kts 245°
2026-05-04 19:02 41.28403 2.07973 230 ft 156 kts 244°
2026-05-04 19:02 41.27875 2.06765 947 ft 155 kts 225°
2026-05-04 19:03 41.26885 2.06156 1490 ft 171 kts 189°
2026-05-04 19:03 41.25618 2.06061 1869 ft 191 kts 185°
2026-05-04 19:03 41.24244 2.06020 2348 ft 205 kts 184°
2026-05-04 19:03 41.22772 2.05993 3009 ft 214 kts 185°
2026-05-04 19:04 41.21285 2.05946 3897 ft 213 kts 185°
2026-05-04 19:04 41.19798 2.05880 4749 ft 215 kts 186°
2026-05-04 19:04 41.18292 2.05789 5511 ft 218 kts 188°
2026-05-04 19:04 41.16848 2.05253 6198 ft 221 kts 210°
2026-05-04 19:05 41.15459 2.04246 6751 ft 232 kts 212°
2026-05-04 19:05 41.14040 2.03251 7538 ft 235 kts 211°
2026-05-04 19:05 41.12579 2.02249 8394 ft 237 kts 210°
2026-05-04 19:05 41.11106 2.01248 9257 ft 239 kts 210°
2026-05-04 19:06 41.09619 2.00236 10121 ft 240 kts 210°
2026-05-04 19:06 41.08193 1.99092 10894 ft 239 kts 222°
2026-05-04 19:06 41.07123 1.97423 11652 ft 243 kts 238°
2026-05-04 19:06 41.06450 1.95277 12027 ft 263 kts 253°
2026-05-04 19:07 41.05998 1.92856 12426 ft 280 kts 254°
2026-05-04 19:07 41.05519 1.90288 12689 ft 301 kts 255°
2026-05-04 19:07 41.05305 1.87455 13106 ft 319 kts 267°
2026-05-04 19:07 41.05322 1.84437 13442 ft 335 kts 267°
2026-05-04 19:08 41.05340 1.81320 14070 ft 339 kts 267°
2026-05-04 19:08 41.05361 1.78185 14751 ft 342 kts 267°
2026-05-04 19:08 41.05384 1.75027 15420 ft 344 kts 268°
2026-05-04 19:08 41.05408 1.71841 16074 ft 347 kts 267°
2026-05-04 19:09 41.05430 1.68622 16722 ft 350 kts 267°
2026-05-04 19:09 41.05453 1.65383 17361 ft 353 kts 267°
2026-05-04 19:09 41.05475 1.62115 17985 ft 357 kts 267°
2026-05-04 19:09 41.05496 1.58858 18561 ft 360 kts 267°
2026-05-04 19:10 41.05517 1.55536 19102 ft 362 kts 267°
2026-05-04 19:10 41.05369 1.52213 19641 ft 361 kts 258°
2026-05-04 19:10 41.04746 1.48999 20173 ft 361 kts 250°
2026-05-04 19:10 41.03989 1.45818 20718 ft 363 kts 250°
2026-05-04 19:11 41.03232 1.42613 21254 ft 366 kts 251°
2026-05-04 19:11 41.02474 1.39387 21794 ft 368 kts 251°
2026-05-04 19:11 41.01715 1.36149 22291 ft 370 kts 251°
2026-05-04 19:11 41.00949 1.32886 22817 ft 372 kts 251°
2026-05-04 19:12 41.00186 1.29647 23294 ft 375 kts 251°
2026-05-04 19:12 40.98622 1.23029 24152 ft 379 kts 251°
2026-05-04 19:12 40.97830 1.19690 24555 ft 381 kts 251°
2026-05-04 19:13 40.97036 1.16339 24950 ft 383 kts 251°
2026-05-04 19:13 40.96240 1.12976 25345 ft 384 kts 251°
2026-05-04 19:13 40.95437 1.09593 25730 ft 386 kts 250°
2026-05-04 19:13 40.94627 1.06191 26110 ft 388 kts 250°
2026-05-04 19:14 40.93822 1.02824 26482 ft 390 kts 250°
2026-05-04 19:14 40.93001 0.99402 26866 ft 392 kts 250°
2026-05-04 19:14 40.92176 0.95957 27236 ft 394 kts 250°
2026-05-04 19:14 40.91348 0.92494 27609 ft 396 kts 250°
2026-05-04 19:15 40.90519 0.89021 27982 ft 397 kts 251°
2026-05-04 19:15 40.89686 0.85533 28341 ft 399 kts 250°
2026-05-04 19:15 40.88840 0.82028 28693 ft 401 kts 250°
2026-05-04 19:15 40.87990 0.78516 29037 ft 402 kts 250°
2026-05-04 19:16 40.87222 0.74947 29358 ft 405 kts 256°
2026-05-04 19:16 40.86897 0.71234 29687 ft 411 kts 265°
2026-05-04 19:16 40.86920 0.67495 29989 ft 413 kts 267°
2026-05-04 19:16 40.86956 0.63692 30267 ft 415 kts 267°
2026-05-04 19:17 40.86989 0.59874 30537 ft 416 kts 267°
2026-05-04 19:17 40.87017 0.56054 30887 ft 415 kts 267°
2026-05-04 19:17 40.87040 0.52250 31293 ft 413 kts 267°
2026-05-04 19:17 40.87063 0.48462 31690 ft 411 kts 267°
2026-05-04 19:18 40.87083 0.44690 32070 ft 410 kts 266°
2026-05-04 19:18 40.87102 0.40931 32445 ft 409 kts 266°
2026-05-04 19:18 40.87121 0.37182 32817 ft 407 kts 266°
2026-05-04 19:18 40.87140 0.33491 33175 ft 407 kts 266°
2026-05-04 19:19 40.87158 0.29761 33567 ft 405 kts 266°
2026-05-04 19:19 40.87173 0.26046 33921 ft 404 kts 266°
2026-05-04 19:19 40.87183 0.22334 34208 ft 404 kts 266°
2026-05-04 19:19 40.87192 0.18630 34505 ft 403 kts 266°
2026-05-04 19:20 40.87200 0.14925 34786 ft 403 kts 266°
2026-05-04 19:20 40.87209 0.11218 35035 ft 403 kts 266°
2026-05-04 19:20 40.87220 0.07515 35287 ft 403 kts 267°
2026-05-04 19:20 40.87230 0.03812 35528 ft 403 kts 267°
2026-05-04 19:21 40.87240 0.00162 35759 ft 403 kts 267°
2026-05-04 19:21 40.87248 -0.03549 35997 ft 403 kts 267°
2026-05-04 19:21 40.87254 -0.07251 36230 ft 403 kts 267°
2026-05-04 19:21 40.87257 -0.10957 36437 ft 403 kts 267°
2026-05-04 19:22 40.87259 -0.14659 36666 ft 403 kts 267°
2026-05-04 19:22 40.87258 -0.18365 36889 ft 403 kts 267°
2026-05-04 19:22 40.87256 -0.22076 37107 ft 404 kts 267°
2026-05-04 19:22 40.87252 -0.25782 37309 ft 404 kts 267°
2026-05-04 19:23 40.87249 -0.29488 37503 ft 404 kts 267°
2026-05-04 19:23 40.87247 -0.33203 37700 ft 404 kts 267°
2026-05-04 19:23 40.87246 -0.36865 37896 ft 404 kts 267°
2026-05-04 19:24 40.87237 -0.44299 37989 ft 405 kts 267°
2026-05-04 19:24 40.87220 -0.51737 37991 ft 405 kts 267°
2026-05-04 19:25 40.87196 -0.59169 37983 ft 404 kts 267°
2026-05-04 19:25 40.87167 -0.66551 37987 ft 404 kts 267°
2026-05-04 19:26 40.87132 -0.73980 37984 ft 404 kts 267°
2026-05-04 19:26 40.86511 -0.81308 37981 ft 401 kts 252°
2026-05-04 19:27 40.84628 -0.88246 37980 ft 401 kts 250°
2026-05-04 19:27 40.82717 -0.95165 37989 ft 402 kts 250°
2026-05-04 19:28 40.80810 -1.02040 37984 ft 401 kts 250°
2026-05-04 19:28 40.78885 -1.08949 37992 ft 401 kts 250°
2026-05-04 19:29 40.76961 -1.15859 37995 ft 401 kts 250°
2026-05-04 19:29 40.75038 -1.22719 38004 ft 401 kts 250°
2026-05-04 19:30 40.73097 -1.29618 37990 ft 401 kts 250°
2026-05-04 19:30 40.71165 -1.36510 38003 ft 401 kts 250°
2026-05-04 19:31 40.69226 -1.43389 38001 ft 400 kts 250°
2026-05-04 19:31 40.67684 -1.48841 37998 ft 399 kts 250°
2026-05-04 19:32 40.65753 -1.55679 37994 ft 398 kts 250°
2026-05-04 19:32 40.63815 -1.62504 38000 ft 397 kts 250°
2026-05-04 19:33 40.61878 -1.69315 37996 ft 397 kts 250°
2026-05-04 19:33 40.59941 -1.76103 37998 ft 396 kts 250°
2026-05-04 19:34 40.58015 -1.82835 37998 ft 396 kts 250°
2026-05-04 19:34 40.56075 -1.89618 37998 ft 396 kts 250°
2026-05-04 19:35 40.54131 -1.96380 37995 ft 396 kts 250°
2026-05-04 19:35 40.52179 -2.03147 37997 ft 396 kts 250°
2026-05-04 19:36 40.50224 -2.09906 37992 ft 395 kts 250°
2026-05-04 19:36 40.48277 -2.16613 37994 ft 396 kts 250°
2026-05-04 19:37 40.46310 -2.23365 37986 ft 396 kts 249°
2026-05-04 19:37 40.44339 -2.30105 37986 ft 395 kts 249°
2026-05-04 19:38 40.42371 -2.36843 37979 ft 395 kts 249°
2026-05-04 19:38 40.40419 -2.43531 37983 ft 395 kts 249°
2026-05-04 19:39 40.38441 -2.50254 37976 ft 395 kts 249°
2026-05-04 19:39 40.36634 -2.57042 37985 ft 394 kts 254°
2026-05-04 19:40 40.35140 -2.63957 37976 ft 394 kts 254°
2026-05-04 19:40 40.33642 -2.70874 37983 ft 394 kts 254°
2026-05-04 19:41 40.32154 -2.77739 37983 ft 394 kts 254°
2026-05-04 19:41 40.30652 -2.84648 37981 ft 394 kts 254°
2026-05-04 19:42 40.29140 -2.91554 37977 ft 394 kts 254°
2026-05-04 19:42 40.27624 -2.98451 37983 ft 394 kts 254°
2026-05-04 19:43 40.26110 -3.05306 37986 ft 394 kts 254°
2026-05-04 19:43 40.24591 -3.12196 37984 ft 394 kts 254°
2026-05-04 19:44 40.23064 -3.19084 37981 ft 394 kts 254°
2026-05-04 19:44 40.21530 -3.25972 37988 ft 394 kts 254°
2026-05-04 19:45 40.19992 -3.32852 37987 ft 394 kts 254°
2026-05-04 19:45 40.18471 -3.39681 37994 ft 394 kts 254°
2026-05-04 19:46 40.16929 -3.46558 37995 ft 394 kts 253°
2026-05-04 19:46 40.15382 -3.53424 38000 ft 394 kts 254°
2026-05-04 19:47 40.13830 -3.60295 37997 ft 394 kts 254°
2026-05-04 19:47 40.12290 -3.67112 37995 ft 394 kts 253°
2026-05-04 19:48 40.10732 -3.73966 38000 ft 394 kts 253°
2026-05-04 19:48 40.09171 -3.80824 37997 ft 394 kts 253°
2026-05-04 19:49 40.07609 -3.87677 37994 ft 394 kts 254°
2026-05-04 19:49 40.06047 -3.94483 37989 ft 394 kts 253°
2026-05-04 19:50 40.04464 -4.01329 37988 ft 394 kts 253°
2026-05-04 19:50 40.02884 -4.08172 37986 ft 394 kts 253°
2026-05-04 19:51 40.01300 -4.15012 37990 ft 394 kts 253°
2026-05-04 19:51 39.99730 -4.21806 37990 ft 394 kts 253°
2026-05-04 19:52 39.98139 -4.28638 37989 ft 394 kts 253°
2026-05-04 19:52 39.96549 -4.35475 37989 ft 394 kts 254°
2026-05-04 19:53 39.95123 -4.42363 37994 ft 394 kts 256°
2026-05-04 19:53 39.93772 -4.49275 37987 ft 394 kts 256°
2026-05-04 19:54 39.92404 -4.56129 37988 ft 394 kts 256°
2026-05-04 19:54 39.90997 -4.63018 37988 ft 394 kts 255°
2026-05-04 19:55 39.89578 -4.69903 37988 ft 393 kts 255°
2026-05-04 19:55 39.88163 -4.76787 37987 ft 393 kts 256°
2026-05-04 19:56 39.86757 -4.83619 37992 ft 393 kts 256°
2026-05-04 19:56 39.85333 -4.90492 37985 ft 393 kts 255°
2026-05-04 19:57 39.83898 -4.97364 37987 ft 393 kts 255°
2026-05-04 19:57 39.82469 -5.04233 37986 ft 393 kts 256°
2026-05-04 19:58 39.81048 -5.11055 37983 ft 393 kts 255°
2026-05-04 19:58 39.79611 -5.17917 37983 ft 393 kts 256°
2026-05-04 19:59 39.78164 -5.24779 37986 ft 393 kts 255°
2026-05-04 19:59 39.76712 -5.31629 37994 ft 393 kts 255°
2026-05-04 20:00 39.75271 -5.38431 37994 ft 393 kts 256°
2026-05-04 20:00 39.73815 -5.45278 37999 ft 393 kts 256°
2026-05-04 20:01 39.72356 -5.52122 37990 ft 393 kts 256°
2026-05-04 20:01 39.70895 -5.58965 37995 ft 393 kts 256°
2026-05-04 20:02 39.69430 -5.65803 38003 ft 393 kts 256°
2026-05-04 20:02 39.67977 -5.72593 37996 ft 393 kts 256°
2026-05-04 20:03 39.66501 -5.79417 38006 ft 393 kts 256°
2026-05-04 20:03 39.65021 -5.86234 38013 ft 393 kts 256°
2026-05-04 20:04 39.63540 -5.93054 38015 ft 392 kts 256°
2026-05-04 20:04 39.62067 -5.99820 38008 ft 392 kts 256°
2026-05-04 20:05 39.60747 -6.05845 38015 ft 392 kts 256°
2026-05-04 20:05 39.59614 -6.11028 38021 ft 392 kts 256°
2026-05-04 20:06 39.58126 -6.17821 38017 ft 392 kts 256°
2026-05-04 20:06 39.56633 -6.24605 38020 ft 391 kts 256°
2026-05-04 20:07 39.55130 -6.31384 38021 ft 391 kts 256°
2026-05-04 20:07 39.53643 -6.38106 38024 ft 390 kts 256°
2026-05-04 20:08 39.51960 -6.44790 38028 ft 393 kts 247°
2026-05-04 20:08 39.49534 -6.51132 38032 ft 393 kts 246°
2026-05-04 20:09 39.47096 -6.57465 38033 ft 393 kts 247°
2026-05-04 20:09 39.45075 -6.62726 38037 ft 393 kts 247°
2026-05-04 20:10 39.42641 -6.69056 38041 ft 393 kts 247°
2026-05-04 20:10 39.40199 -6.75378 38045 ft 393 kts 247°
2026-05-04 20:11 39.37761 -6.81682 38047 ft 392 kts 247°
2026-05-04 20:11 39.35343 -6.87941 38048 ft 392 kts 247°
2026-05-04 20:12 39.32905 -6.94237 38051 ft 391 kts 247°
2026-05-04 20:12 39.30466 -7.00510 38055 ft 391 kts 247°
2026-05-04 20:13 39.28020 -7.06772 38059 ft 390 kts 247°
2026-05-04 20:13 39.25580 -7.13018 37655 ft 400 kts 247°
2026-05-04 20:13 39.24327 -7.16234 37028 ft 403 kts 247°
2026-05-04 20:14 39.23063 -7.19469 36455 ft 404 kts 247°
2026-05-04 20:14 39.21803 -7.22694 35867 ft 403 kts 247°
2026-05-04 20:14 39.20525 -7.25908 35297 ft 402 kts 246°
2026-05-04 20:14 39.19230 -7.29094 34751 ft 400 kts 246°
2026-05-04 20:15 39.17931 -7.32250 34169 ft 397 kts 246°
2026-05-04 20:15 39.16637 -7.35381 33525 ft 393 kts 246°
2026-05-04 20:15 39.15375 -7.38430 32924 ft 388 kts 246°
2026-05-04 20:15 39.14114 -7.41480 32347 ft 383 kts 247°
2026-05-04 20:16 39.12874 -7.44495 31820 ft 379 kts 247°
2026-05-04 20:16 39.11650 -7.47480 31288 ft 375 kts 247°
2026-05-04 20:16 39.10438 -7.50435 30777 ft 371 kts 247°
2026-05-04 20:16 39.09237 -7.53360 30259 ft 368 kts 247°
2026-05-04 20:17 39.08047 -7.56256 29693 ft 365 kts 247°
2026-05-04 20:17 39.06865 -7.59129 29101 ft 362 kts 247°
2026-05-04 20:17 39.05690 -7.61981 28529 ft 360 kts 247°
2026-05-04 20:17 39.04523 -7.64814 27959 ft 357 kts 246°
2026-05-04 20:18 39.03400 -7.67603 27417 ft 355 kts 248°
2026-05-04 20:18 39.02310 -7.70436 26866 ft 352 kts 248°
2026-05-04 20:18 39.01247 -7.73264 26343 ft 350 kts 248°
2026-05-04 20:18 39.00197 -7.76077 25817 ft 348 kts 248°
2026-05-04 20:19 38.99148 -7.78876 25315 ft 347 kts 248°
2026-05-04 20:19 38.98100 -7.81652 25102 ft 345 kts 248°
2026-05-04 20:19 38.97230 -7.84509 25016 ft 342 kts 259°
2026-05-04 20:19 38.97030 -7.87533 24773 ft 340 kts 270°
2026-05-04 20:20 38.97012 -7.90530 24542 ft 340 kts 270°
2026-05-04 20:20 38.97000 -7.93560 24307 ft 339 kts 270°
2026-05-04 20:20 38.96987 -7.96589 24075 ft 338 kts 269°
2026-05-04 20:20 38.96961 -7.99609 23845 ft 338 kts 269°
2026-05-04 20:21 38.96938 -8.02620 23611 ft 337 kts 270°
2026-05-04 20:21 38.96920 -8.05620 23333 ft 336 kts 270°
2026-05-04 20:21 38.96881 -8.11618 22434 ft 335 kts 270°
2026-05-04 20:22 38.96857 -8.14570 21832 ft 334 kts 270°
2026-05-04 20:22 38.96833 -8.17545 21237 ft 333 kts 270°
2026-05-04 20:22 38.96808 -8.20519 20655 ft 333 kts 270°
2026-05-04 20:22 38.96785 -8.23488 20086 ft 332 kts 270°
2026-05-04 20:23 38.96763 -8.26458 19507 ft 332 kts 270°
2026-05-04 20:23 38.96737 -8.29430 18933 ft 333 kts 270°
2026-05-04 20:23 38.96710 -8.32412 18364 ft 334 kts 270°
2026-05-04 20:23 38.96680 -8.35400 17711 ft 335 kts 270°
2026-05-04 20:24 38.96650 -8.38397 17083 ft 336 kts 270°
2026-05-04 20:24 38.96618 -8.41360 16472 ft 337 kts 270°
2026-05-04 20:24 38.96585 -8.44376 15865 ft 338 kts 270°
2026-05-04 20:24 38.96552 -8.47396 15266 ft 339 kts 270°
2026-05-04 20:25 38.96524 -8.50426 14678 ft 339 kts 270°
2026-05-04 20:25 38.96496 -8.53453 14099 ft 335 kts 270°
2026-05-04 20:25 38.96463 -8.56406 13275 ft 327 kts 270°
2026-05-04 20:25 38.96425 -8.59299 12424 ft 321 kts 270°
2026-05-04 20:26 38.96386 -8.62147 11585 ft 316 kts 270°
2026-05-04 20:26 38.96351 -8.64952 10775 ft 312 kts 271°
2026-05-04 20:26 38.96636 -8.67666 9975 ft 306 kts 293°
2026-05-04 20:26 38.97867 -8.69791 9121 ft 303 kts 322°
2026-05-04 20:27 38.99755 -8.70950 8259 ft 302 kts 341°
2026-05-04 20:27 39.01802 -8.71540 7483 ft 300 kts 349°
2026-05-04 20:27 39.03807 -8.71879 7212 ft 279 kts 351°
2026-05-04 20:27 39.05635 -8.72272 7056 ft 256 kts 339°
2026-05-04 20:28 39.07157 -8.73329 6775 ft 245 kts 319°
2026-05-04 20:28 39.08234 -8.74978 6504 ft 239 kts 298°
2026-05-04 20:28 39.08760 -8.76975 6255 ft 237 kts 279°
2026-05-04 20:28 39.08698 -8.79102 5993 ft 241 kts 259°
2026-05-04 20:29 39.08064 -8.81077 5738 ft 244 kts 243°
2026-05-04 20:29 39.07191 -8.82951 5476 ft 245 kts 241°
2026-05-04 20:29 39.06277 -8.84781 5227 ft 241 kts 240°
2026-05-04 20:29 39.05366 -8.86560 4974 ft 235 kts 240°
2026-05-04 20:30 39.04470 -8.88301 4715 ft 232 kts 240°
2026-05-04 20:30 39.03581 -8.90032 4443 ft 231 kts 240°
2026-05-04 20:30 39.02695 -8.91766 4190 ft 232 kts 241°
2026-05-04 20:30 39.01814 -8.93493 4046 ft 231 kts 241°
2026-05-04 20:31 39.00932 -8.95224 4022 ft 232 kts 241°
2026-05-04 20:31 39.00060 -8.96937 4024 ft 232 kts 240°
2026-05-04 20:31 38.99176 -8.98672 4023 ft 232 kts 241°
2026-05-04 20:31 38.98317 -9.00353 4022 ft 218 kts 240°
2026-05-04 20:32 38.97507 -9.01937 4019 ft 205 kts 241°
2026-05-04 20:32 38.96655 -9.03351 4002 ft 198 kts 227°
2026-05-04 20:32 38.95484 -9.04290 3822 ft 201 kts 206°
2026-05-04 20:32 38.94202 -9.04975 3572 ft 198 kts 206°
2026-05-04 20:33 38.92934 -9.05653 3307 ft 197 kts 207°
2026-05-04 20:33 38.91687 -9.06322 3041 ft 193 kts 207°
2026-05-04 20:33 38.90467 -9.06977 2786 ft 188 kts 208°
2026-05-04 20:33 38.89281 -9.07614 2526 ft 185 kts 208°
2026-05-04 20:34 38.88146 -9.08221 2264 ft 169 kts 207°
2026-05-04 20:34 38.87048 -9.08807 2032 ft 172 kts 206°
2026-05-04 20:34 38.85945 -9.09384 1813 ft 168 kts 207°
2026-05-04 20:34 38.84871 -9.09959 1583 ft 165 kts 207°
2026-05-04 20:35 38.83824 -9.10542 1302 ft 163 kts 206°
2026-05-04 20:35 38.82803 -9.11091 1093 ft 154 kts 204°
2026-05-04 20:35 38.81831 -9.11615 881 ft 150 kts 208°
2026-05-04 20:35 38.80880 -9.12116 713 ft 146 kts 207°
2026-05-04 20:36 38.79941 -9.12615 543 ft 145 kts 205°
2026-05-04 20:36 38.79025 -9.13118 368 ft 143 kts 207°
2026-05-04 20:36 38.78204 -9.13552 368 ft 105 kts 201°
2026-05-04 20:36 38.77689 -9.13834 365 ft 57 kts 204°
2026-05-04 20:37 38.77428 -9.13977 361 ft 34 kts 202°
2026-05-04 20:37 38.77217 -9.14078 362 ft 21 kts 188°
2026-05-04 20:37 38.77127 -9.14002 363 ft 15 kts 110°
2026-05-04 20:37 38.77111 -9.13926 352 ft 3 kts 75°
2026-05-04 20:38 38.77155 -9.13887 358 ft 13 kts 20°
2026-05-04 20:38 38.77238 -9.13827 357 ft 14 kts 54°
2026-05-04 20:38 38.77263 -9.13710 360 ft 13 kts 76°
2026-05-04 20:38 38.77279 -9.13591 353 ft 14 kts 79°
2026-05-04 20:39 38.77300 -9.13462 347 ft 16 kts 78°
2026-05-04 20:39 38.77325 -9.13325 337 ft 12 kts 77°
2026-05-04 20:39 38.77307 -9.13260 336 ft 8 kts 147°
2026-05-04 20:39 38.77255 -9.13241 338 ft 8 kts 167°
2026-05-04 20:40 38.77207 -9.13224 334 ft 7 kts 148°
2026-05-04 20:40 38.77201 -9.13170 337 ft 4 kts 78°
2026-05-04 20:40 38.77204 -9.13153 337 ft 3 kts 77°
2026-05-04 20:40 38.77207 -9.13137 333 ft 0 kts 77°